Вернуться в каталог

STARLINK-4553

АктивенСвязьVLEO
NORAD 53577·PAYLOAD·🇺🇸 United States

Запущен Aug 19, 2022 с Cape Canaveral Space Force Station

Loading…

Ближайшие Пролёты (ближайшие 24 часа)

TLE

СвежийSource: CelesTrak SupGP

Эпоха: Sep 15, 2026, 02:04 UTC

1 53577C 22101BC  26258.08659722 -.00005751  00000+0 -16992-3 0  2582
2 53577  53.1578 268.7793 0001311  85.5122 287.4108 15.34393779    11

Отслеживайте STARLINK-4553 в реальном времени с AllMySat

Download on the App Store